Simultaneous Nadir Overpasses (SNOs) Predictions

Prediction of SNOs between GOES-16 and METOP-A Satellite Orbit:

Table of predicted SNOs for the next 14.0 days since TLE Epoch: 10/16/2021
Index Date Time (GOES-16) GOES-16 Lat,Lon METOP-A Lat,Lon Distance(km) Time Diff (sec)
1 10/17/2021 13:07:13 0.06, -75.21 0.60, -77.77 291.25 80
2 10/18/2021 12:43:53 0.06, -75.22 -0.50, -72.79 276.79 80
3 10/20/2021 01:05:31 -0.07, -75.22 -0.55, -77.42 251.14 80
4 10/21/2021 00:42:11 -0.06, -75.23 0.56, -72.45 317.30 80
5 10/22/2021 13:03:41 0.07, -75.27 0.47, -77.04 202.47 80
6 10/23/2021 12:40:20 0.08, -75.28 -0.64, -72.07 366.25 80
7 10/25/2021 01:01:59 -0.09, -75.28 -0.40, -76.70 160.89 80
8 10/26/2021 00:38:38 -0.09, -75.30 0.70, -71.72 407.99 80
9 10/27/2021 13:00:09 0.10, -75.34 0.32, -76.32 111.27 80
10 10/28/2021 12:36:48 0.10, -75.36 -0.79, -71.34 457.88 80
11 10/30/2021 00:58:26 -0.10, -75.37 -0.25, -75.97 68.49 80
